876  
ASUS44 KEWX 080711  
RWREWX  
SOUTH TEXAS REGIONAL WEATHER ROUNDUP  
NATIONAL WEATHER SERVICE AUSTIN/SAN ANTONIO TX  
100 AM CST THU DEC 08 2016  
 
NOTE: "FAIR" INDICATED FEW OR NO CLOUDS BELOW 12,000 FEET WITH NO  
SIGNIFICANT WEATHER AND/OR S TO VISIBILITY
.  
 
* - THESE STATIONS ARE NOT NWS OR FAA STATIONS...AND ARE NOT SUBJECT  
TO NWS AND FAA QUALITY CONTROL.
 
 
TXZ171-172-183>190-080800-  
TEXAS HILL COUNTRY AND EDWARDS PLATEAU  
 
CITY SKY/WX TMP DP RH WIND PRES REMARKS
 
JUNCTION CLOUDY 45 43 93 NE12 30.27R WCI 39  
*LLANO CLOUDY N/A N/A N/A N9 30.33R  
BURNET CLOUDY 47 40 76 N10G20 30.30R WCI 42  
*HORSESHOE BAY CLOUDY 48 43 82 N9G18 30.28S WCI 44  
*KERRVILLE CLOUDY 49 46 89 N13G18 30.24R WCI 43  
*FREDERICKSBRG CLOUDY 46 43 88 NE13G23 30.25R WCI 41  
*ROCKSPRINGS CLOUDY 45 43 93 NE14 30.24R FOG WCI 38  
*BOERNE STAGE CLOUDY 46 45 93 N12 30.23R WCI 41  
*CASTROVILLE CLOUDY 54 47 77 NE9G16 30.21S  
HONDO CLOUDY 56 49 77 NE17 30.19R  
*UVALDE CLOUDY 55 52 90 CALM 30.18S  
DEL RIO CLOUDY 51 48 89 W7 30.20R  
LAUGHLIN AFB CLOUDY 51 49 92 W8 30.20R  
CARRIZO SPRGS DRIZZLE 54 54 100 E7 30.17S  
*EAGLE PASS CLOUDY 52 48 87 NW8 30.19R FOG  

 
 
TXZ173-191>194-202-209-217>225-228-080800-  
CENTRAL AND SOUTH CENTRAL TEXAS  
 
CITY SKY/WX TMP DP RH WIND PRES REMARKS
 
GEORGETOWN MOCLDY 50 39 66 N13 30.27S WCI 45  
AUSTIN/BERGSTM CLOUDY 52 45 77 N20G29 30.24S  
AUSTIN/MABRY CLOUDY 51 44 77 N9G20 30.26S  
*AUSTIN/EXEC CLOUDY 50 46 87 N15 30.26S WCI 45  
*LAGO VISTA CLOUDY 49 44 84 N12G20 30.25S WCI 44  
SAN MARCOS CLOUDY 52 46 82 N20 30.24S  
NEW BRAUNFELS CLOUDY 52 47 83 N13 30.21S  
RANDOLPH AFB CLOUDY 52 49 89 NE14 30.21R  
PT SAN ANTONIO CLOUDY 53 47 80 N18 30.17S  
SAN ANTONIO CLOUDY 52 46 80 N16G22 30.21S  
STINSON FIELD CLOUDY 55 47 74 NE15G23 30.19R  
*PLEASANTON CLOUDY 55 48 80 NE15G21 30.18S  
*LA GRANGE CLOUDY 55 50 85 N9G17 30.20S  
*GIDDINGS CLOUDY 51 46 86 N10G22 30.27R  
*GONZALES CLOUDY 54 51 92 N12G17 30.20S  

 
 
TXZ163>164-176>182-195>201-210>213-226-227-235-080800-  
SOUTHEAST TEXAS  
 
CITY SKY/WX TMP DP RH WIND PRES REMARKS
 
COLLEGE STN CLOUDY 52 48 86 N18 30.24R  
*BRYAN CLOUDY 51 48 92 N14 30.26R  
*CALDWELL NOT AVBL  
*CROCKETT CLOUDY 50 48 93 N7 30.28R FOG WCI 47  
*BRENHAM CLOUDY 55 50 85 N10G17 30.23R  
HUNTSVILLE CLOUDY 53 48 83 N7 30.23R  
CONROE LGT RAIN 54 52 93 N8 30.21R  
HOUSTON BUSH CLOUDY 56 54 93 N10 30.19R  
HOUSTON HOBBY LGT RAIN 57 55 93 N12 30.17S  
*HOUSTON SW AP RAIN 55 54 97 N7 30.17S  
PEARLAND LGT RAIN 58 55 90 N10G21 30.17R  
HOUSTON HOOKS LGT RAIN 55 53 93 N10G17 30.19F  
ELLINGTON FLD MOCLDY 57 55 94 N9 30.18S  
SUGAR LAND CLOUDY 55 55 100 N14 30.16F  
*HOUSTON EXEC N/A 54 54 100 N12 30.20R  
*CLEVELAND MUN RAIN 55 53 95 N7 30.20S  
*WHARTON DRIZZLE 56 54 93 N9 30.16S  
*COLUMBUS RAIN 53 51 92 N7 30.20R  
*EAGLE LAKE RAIN 56 55 95 N10 30.19R  

 
 
TXZ214>216-236>238-080800-  
THE UPPER TEXAS COAST  
 
CITY SKY/WX TMP DP RH WIND PRES REMARKS
 
*ORANGE RAIN N/A N/A N/A N5 30.21R  
PORT ARTHUR LGT RAIN 56 54 93 N12 30.17S  
GALVESTON LGT RAIN 59 57 93 N24 30.15R FOG  
ANGLETON CLOUDY 58 56 93 N17G23 30.14R FOG  
*BAY CITY CLOUDY 57 57 99 N15 30.13R FOG  
PALACIOS CLOUDY 56 54 93 N22 30.12R  

 
 
TXZ229>234-239>247-080800-  
TEXAS COASTAL BEND AND RIO GRANDE PLAINS  
 
CITY SKY/WX TMP DP RH WIND PRES REMARKS
 
VICTORIA CLOUDY 57 52 83 N15G24 30.16R  
*BEEVILLE CLOUDY 57 56 97 N18 30.13S  
ROCKPORT N/A N/A N/A N/A MISG 30.10R  
*PORT ARANSAS CLOUDY 59 58 95 N22G28 30.08S FOG  
*PORT LAVACA CLOUDY 57 55 94 N17G23 30.13S  
*INGLESIDE CLOUDY 60 58 90 N22 30.09S  
CORPUS CHRISTI CLOUDY 59 58 96 N17 30.09F  
CORPUS NAS CLOUDY 58 58 100 N22 30.09S FOG  
*ROBSTOWN CLOUDY 61 59 93 N12G22 30.10S  
ALICE CLOUDY 58 55 90 N13 30.10S  
KINGSVILLE NAS NOT AVBL  
COTULLA CLOUDY 57 51 80 NE12 30.16S  
*FAITH RANCH CLOUDY 54 52 94 N7 30.16F FOG  
LAREDO CLOUDY 55 54 96 N10 30.14S  

 
 
TXZ248>255-080800-  
DEEP SOUTH TEXAS  
 
CITY SKY/WX TMP DP RH WIND PRES REMARKS
 
BROWNSVILLE MOCLDY 71 69 93 N7 30.02S  
PORT ISABEL MOCLDY 68 67 96 N8 30.01F FOG  
*SOUTH PADRE N/A 72 70 94 NW6 30.01F  
HARLINGEN CLOUDY 66 65 96 N12 30.02F FOG  
*HEBBRONVILLE RAIN 55 54 97 N9 30.11F  
MCALLEN CLOUDY 66 61 84 N10 30.05S  
*WESLACO CLOUDY 64 61 90 N5 30.03F  
FALFURRIAS CLOUDY 59 56 89 N13 30.08F  
EDINBURG CLOUDY 64 59 83 N12 30.06S  
*ZAPATA CLOUDY 57 57 97 N9 30.10S FOG  

 
 
TXZ213>215-236>238-242>244-246-247-251-254-255-080800-  
CMAN STATIONS  
 
STATION/POSITION TIME TEMP WIND PRES WAVE
 
AIR SEA DIR/SP/G HT/PER  
(UTC) (F) (DEG/KT/KT) (MB) (FT/S)  
SABINE PASS 0642 61 10/ 13/ 17 1022.4  
NORTH JETTY/GLS 0642 63 10/ 18/ 21 N/A  
EAGLE POINT 0642 60 30/ 12/ 17 1020.9  
MORGANS POINT 0642 61 360/ 9/ 12 1021.5  
PORT O'CONNOR 0648 340/ 20/ 23 1019.7  
MALAQUITE BEACH 0648 65 350/ 19/ 21 1018.8  
BAFFIN BAY 0648 64 350/ 16/ 18 1018.1  
PORT ISABEL 0648 71 340/ 6/ 8 1016.2  

 
 
 
CLICK HERE TO GO TO PREVIOUS BULLETINS.

The Nexlab TX Page Main Text Page